Weather History for Cecil Field, FL

Change the Weather History Date:

Monday, August 26, 2013

  Actual Average (KJAX) Record (KJAX)
Temperature  
Mean Temperature 76 °F 81 °F  
Max Temperature 84 °F 90 °F 98 °F (1872)
Min Temperature 69 °F 72 °F 64 °F (1997)
Degree Days  
Heating Degree Days 0 0  
Month to date heating degree days 0  
Since 1 June heating degree days 0  
Since 1 July heating degree days 0  
Cooling Degree Days 12 16  
Month to date cooling degree days 439  
Year to date cooling degree days 1908  
Since 1 June cooling degree days 1424  
Growing Degree Days 26 (Base 50)    
Moisture  
Dew Point 72 °F    
Average Humidity 93    
Maximum Humidity 100    
Minimum Humidity 70    
Precipitation  
Precipitation 0.00 in 0.26 in 3.74 in (1935)
Month to date precipitation 5.52  
Year to date precipitation 34.08  
Snow  
Snow 0.00 in 0.00 in 0.00 in (2002)
Month to date snowfall 0.0  
Since 1 June snowfall 0.0  
Since 1 July snowfall 0.0  
Snow Depth -    
Sea Level Pressure  
Sea Level Pressure 30.15 in    
Wind  
Wind Speed 4 mph (NNE)    
Max Wind Speed 17 mph    
Max Gust Speed -    
Visibility 9 miles    
Events      
T = Trace of Precipitation, MM = Missing Value Source: NWS Daily Summary

Daily Weather History Graph

Daily Weather History Graph

Search for Another Location

Airport:

Trip Planner

Search our weather history database for the weather conditions in past years. The results will help you decide how hot, cold, wet, or windy it might be!

Date:

Astronomy

Aug. 26, 2013 Rise Set
Actual Time 7:01 AM EDT 7:56 PM EDT
Civil Twilight 6:36 AM EDT 8:21 PM EDT
Nautical Twilight 6:07 AM EDT 8:50 PM EDT
Astronomical Twilight 5:37 AM EDT 9:20 PM EDT
Moon 11:36 PM EDT (8/26) 12:32 PM EDT (8/26)
Length of Visible Light 13h 44m
Length of Day
12h 55m
Waning Gibbous, 67% of the Moon is Illuminated
Aug 26
Waning Gibbous
Aug 28
Last Quarter
Sep 5
New
Sep 12
First Quarter
Sep 19
Full

Hourly Weather History & Observations

Time (EDT) Temp. Heat Index Dew Point Humidity Pressure Visibility Wind Dir Wind Speed Gust Speed Precip Events Conditions
12:15 AM 69.8 °F - 69.8 °F 100% 30.21 in 7.0 mi Calm Calm - N/A   Clear
12:35 AM 69.8 °F - 69.8 °F 100% 30.20 in 9.0 mi Calm Calm - N/A   Clear
12:55 AM 71.6 °F - 71.6 °F 100% 30.20 in 8.0 mi North 3.5 mph - N/A   Clear
1:15 AM 71.6 °F - 71.6 °F 100% 30.19 in 9.0 mi North 3.5 mph - N/A   Clear
1:35 AM 71.6 °F - 71.6 °F 100% 30.19 in 9.0 mi North 3.5 mph - N/A   Clear
1:55 AM 71.6 °F - 71.6 °F 100% 30.18 in 9.0 mi North 4.6 mph - N/A   Clear
2:15 AM 71.6 °F - 71.6 °F 100% 30.17 in 9.0 mi North 4.6 mph - N/A   Clear
2:35 AM 71.6 °F - 71.6 °F 100% 30.16 in 9.0 mi Calm Calm - N/A   Clear
2:55 AM 69.8 °F - 69.8 °F 100% 30.16 in 8.0 mi Calm Calm - N/A   Clear
3:15 AM 71.6 °F - 71.6 °F 100% 30.16 in 9.0 mi North 5.8 mph - N/A   Clear
3:35 AM 71.6 °F - 71.6 °F 100% 30.16 in 8.0 mi Calm Calm - N/A   Clear
3:55 AM 71.6 °F - 71.6 °F 100% 30.16 in 9.0 mi North 4.6 mph - N/A   Clear
4:15 AM 71.6 °F - 71.6 °F 100% 30.16 in 8.0 mi North 5.8 mph - N/A   Clear
4:35 AM 71.6 °F - 71.6 °F 100% 30.16 in 9.0 mi North 5.8 mph - N/A   Clear
4:55 AM 71.6 °F - 71.6 °F 100% 30.16 in 9.0 mi North 4.6 mph - N/A   Clear
5:15 AM 71.6 °F - 71.6 °F 100% 30.16 in 10.0 mi North 4.6 mph - N/A   Clear
5:35 AM 69.8 °F - 69.8 °F 100% 30.16 in 9.0 mi North 5.8 mph - N/A   Clear
5:55 AM 69.8 °F - 69.8 °F 100% 30.16 in 9.0 mi North 3.5 mph - N/A   Clear
6:15 AM 69.8 °F - 69.8 °F 100% 30.16 in 9.0 mi North 3.5 mph - N/A   Clear
6:35 AM 69.8 °F - 69.8 °F 100% 30.16 in 9.0 mi North 6.9 mph - N/A   Scattered Clouds
6:50 AM 69.8 °F - 69.8 °F 100% 30.16 in 7.0 mi North 9.2 mph - N/A   Scattered Clouds
7:50 AM 69.8 °F - 69.8 °F 100% 30.17 in 10.0 mi North 8.1 mph - N/A   Mostly Cloudy
8:50 AM 73.4 °F - 73.4 °F 100% 30.18 in 10.0 mi North 9.2 mph - N/A   Mostly Cloudy
9:20 AM 75.2 °F - 73.4 °F 94% 30.18 in 10.0 mi North 1.2 mph - N/A   Scattered Clouds
9:50 AM 77.0 °F - 73.4 °F 89% 30.18 in 10.0 mi North 1.2 mph - N/A   Scattered Clouds
10:50 AM 80.6 °F 86.2 °F 75.2 °F 84% 30.19 in 10.0 mi North 1.2 mph - N/A   Mostly Cloudy
11:50 AM 82.4 °F 89.5 °F 75.2 °F 79% 30.19 in 10.0 mi North 17.3 mph - N/A   Mostly Cloudy
12:50 PM 84.2 °F 92.3 °F 75.2 °F 74% 30.17 in 10.0 mi NNE 11.5 mph - N/A   Mostly Cloudy
1:50 PM 84.2 °F 92.3 °F 75.2 °F 74% 30.16 in 10.0 mi NE 11.5 mph - N/A   Mostly Cloudy
2:50 PM 84.2 °F 90.9 °F 73.4 °F 70% 30.14 in 10.0 mi ENE 9.2 mph - N/A   Scattered Clouds
3:50 PM 84.2 °F 90.9 °F 73.4 °F 70% 30.12 in 10.0 mi SSE 11.5 mph - N/A   Scattered Clouds
4:50 PM 84.2 °F 90.9 °F 73.4 °F 70% 30.10 in 10.0 mi ENE 13.8 mph - N/A   Scattered Clouds
5:50 PM 84.2 °F 90.9 °F 73.4 °F 70% 30.10 in 10.0 mi NE 6.9 mph - N/A   Scattered Clouds
6:50 PM 80.6 °F 85.4 °F 73.4 °F 79% 30.09 in 10.0 mi ENE 8.1 mph - N/A   Partly Cloudy
7:50 PM 78.8 °F - 71.6 °F 78% 30.09 in 10.0 mi ENE 6.9 mph - N/A   Clear
8:15 PM 77.0 °F - 73.4 °F 89% 30.10 in 10.0 mi NE 4.6 mph - N/A   Clear
8:35 PM 77.0 °F - 73.4 °F 89% 30.10 in 10.0 mi NE 3.5 mph - N/A   Clear
8:55 PM 77.0 °F - 73.4 °F 89% 30.11 in 10.0 mi Calm Calm - N/A   Clear
9:15 PM 75.2 °F - 73.4 °F 94% 30.11 in 10.0 mi Calm Calm - N/A   Clear
9:35 PM 75.2 °F - 73.4 °F 94% 30.12 in 10.0 mi Calm Calm - N/A   Clear
9:55 PM 73.4 °F - 73.4 °F 100% 30.13 in 10.0 mi Calm Calm - N/A   Clear
10:15 PM 73.4 °F - 73.4 °F 100% 30.13 in 10.0 mi Calm Calm - N/A   Clear
10:35 PM 73.4 °F - 73.4 °F 100% 30.13 in 10.0 mi Calm Calm - N/A   Clear
10:55 PM 73.4 °F - 73.4 °F 100% 30.13 in 10.0 mi Calm Calm - N/A   Clear
11:15 PM 73.4 °F - 73.4 °F 100% 30.13 in 10.0 mi Calm Calm - N/A   Clear
11:35 PM 73.4 °F - 73.4 °F 100% 30.13 in 10.0 mi Calm Calm - N/A   Clear
11:55 PM 73.4 °F - 73.4 °F 100% 30.13 in 10.0 mi Calm Calm - N/A   Scattered Clouds